Regional Weather Roundup
Issued by NWS

Home | Current Version | Previous Version | Text Only | Print | Product List | Glossary On
Versions: 1 2 3 4 5 6 7 8 9 10 11 12 13 14 15 16 17 18 19 20 21 22 23 24 25 26 27 28 29 30 31 32 33 34 35 36 37 38 39 40 41 42 43 44 45 46 47 48 49 50
000
ASUS45 KPSR 290310
RWRAZ

ARIZONA HOURLY REGIONAL WEATHER ROUNDUP
NATIONAL WEATHER SERVICE PHOENIX AZ
800 PM MST TUE JUL 28 2015

NOTE: FAIR INDICATES FEW OR NO CLOUDS BELOW 12,000 FEET WITH NO
SIGNIFICANT WEATHER AND/OR OBSTRUCTIONS TO VISIBILITY.

AZZ001>003-036-290400-
NORTHWEST ARIZONA

CITY           SKY/WX    TMP DP  RH WIND       PRES   REMARKS
BULLHEAD CITY  CLEAR    104  37  10 S6        29.74R
KINGMAN        CLEAR     88  29  12 SW7       29.99R
$$

AZZ004>008-015-016-018-290400-
NORTH CENTRAL ARIZONA

CITY           SKY/WX    TMP DP  RH WIND       PRES   REMARKS
GRAND CANYON   CLEAR     65  22  19 CALM      30.23R
WILLIAMS       CLEAR     73  25  16 SW7       30.31R
PRESCOTT       PTCLDY    83  37  19 SW9       30.11R
FLAGSTAFF      MOCLDY    72  41  32 SW3       30.27R
PAYSON         MOCLDY    79  52  38 E9G15     30.16R
PAGE           CLEAR     87  28  12 SE3       30.01R
$$

AZZ009>014-017-290400-
NORTHEAST ARIZONA

CITY           SKY/WX    TMP DP  RH WIND       PRES   REMARKS
WINSLOW        MOCLDY    83  52  34 S21G28    30.09R
SAINT JOHNS    CLOUDY    75  52  44 S13       30.17R
WINDOW ROCK    CLOUDY    78  36  21 E3        30.23R
SHOW LOW       CLOUDY    64  50  59 SW13      30.26S
$$

AZZ023-290400-
GREATER PHOENIX AREA

CITY           SKY/WX    TMP DP  RH WIND       PRES   REMARKS
PHOENIX        CLOUDY   102  55  20 SW6       29.78R HX 100
GLENDALE       PTCLDY   104  54  18 S10       29.79R HX 102
LUKE AFB       CLOUDY   104  55  20 SW7       29.77R HX 103
DEER VALLEY    CLOUDY   100  53  20 SW8       29.80R
SCOTTSDALE     CLOUDY   100  54  21 SW6       29.82R
MESA-FALCON    MOCLDY   100  54  20 SW7       29.81R
MESA-GATEWAY   PTCLDY    99  54  22 SW7       29.84R
CHANDLER       MOCLDY   100  54  20 S6        29.81R
$$

AZZ027-028-290400-
SOUTHWEST MARICOPA COUNTY AND PINAL COUNTY

CITY           SKY/WX    TMP DP  RH WIND       PRES   REMARKS
CASA GRANDE    CLOUDY    97  61  30 CALM      29.84R
GILA BEND      MOCLDY   102  57  22 SW6       29.76R HX 101
$$

AZZ503-504-507>509-290400-
SOUTHEAST ARIZONA

CITY           SKY/WX    TMP DP  RH WIND       PRES   REMARKS
TUCSON         CLOUDY    74  67  78 S20       30.04S
DAVIS-MONTHAN  LGT RAIN  72  68  88 SE9       30.03R
RYAN FIELD     RAIN      79  66  65 S21G30    30.02R
NOGALES        LGT RAIN  68  65  90 S3        30.15R
SIERRA VISTA   LGT RAIN  67  63  86 W16       30.18R
DOUGLAS          N/A    N/A N/A N/A MISG      30.10R
SAFFORD        CLOUDY    91  54  28 NW13      29.94R
$$

AZZ020-021-025-026-031-290400-
SOUTHWEST ARIZONA

CITY           SKY/WX    TMP DP  RH WIND       PRES   REMARKS
YUMA           PTCLDY   100  66  32 S12       29.74R HX 104
$$

CAZ031-033-041-043-047-048-061-290400-
SOUTHERN CALIFORNIA

CITY           SKY/WX    TMP DP  RH WIND       PRES   REMARKS
DOWNTOWN L.A.  CLEAR     72  64  76 CALM      29.85R
L.A. AIRPORT   PTCLDY    70  65  84 W13       29.86R
SAN DIEGO      MOCLDY    71  61  70 W5        29.89R
BURBANK        CLEAR     77  61  57 SE7       29.85R
ONTARIO        CLEAR     80  61  52 SW12      29.85R
RIVERSIDE      CLEAR     79  61  53 W6        29.85R
PALM SPRINGS   CLEAR    101  51  18 SE6       29.76R
EL CENTRO NAS  PTCLDY    99  57  24 E10       29.71R
IMPERIAL       CLEAR    101  56  22 SE10      29.70R HX 100
BLYTHE         CLEAR    103  58  22 S8        29.73R HX 102
NEEDLES        CLEAR    105  37   9 W6        29.76R
$$

NVZ020-UTZ003-290400-
SOUTHERN NEVADA-UTAH

CITY           SKY/WX    TMP DP  RH WIND       PRES   REMARKS
LAS VEGAS      CLEAR     99  25   7 NE10      29.82R
SALT LAKE CITY CLEAR     73  23  15 NW10      30.20R
$$

NMZ009-TXZ055-290400-
NEW MEXICO-WEST TEXAS

CITY           SKY/WX    TMP DP  RH WIND       PRES   REMARKS
ALBUQUERQUE    LGT RAIN  81  51  35 SE13      30.17R
EL PASO        TSTM      86  57  37 N21G30    30.02R
$$


........................KEY........................
SKY/WX - SKY CONDITION/WEATHER
TMP    - TEMPERATURE IN FAHRENHEIT
DP     - DEW POINT IN FAHRENHEIT
RH     - RELATIVE HUMIDITY IN PERCENT
WIND   - DIRECTION AND SPEED IN MILES PER HOUR (MPH)
VRB    - VARIABLE WIND DIRECTION
PRES   - MEAN SEA LEVEL PRESSURE IN INCHES OF MERCURY
         F - FALLING PRESSURE   R - RISING PRESSURE
         S - STEADY PRESSURE
VSB    - VISIBILITY IN MILES
HX     - HEAT INDEX IN FAHRENHEIT
WCI    - WIND CHILL INDEX IN FAHRENHEIT
TC     - TEMPERATURE IN CELSIUS WHICH IS ALSO KNOWN AS
         TEMPERATURE IN CENTIGRADE
AFB    - AIR FORCE BASE
         LUKE AFB IS LUKE AIR FORCE BASE
         DAVIS-MONTHAN IS DAVIS-MONTHAN AIR FORCE BASE
NAS    - NAVAL AIR STATION
         EL CENTRO NAS IS EL CENTRO NAVAL AIR STATION
N/A    - NOT AVAILABLE



USA.gov is the U.S. government's official web portal to all federal, state and local government web resources and services.